Regional Weather Roundup
Issued by NWS

Home | Current Version | Previous Version | Text Only | Print | Product List | Glossary Off
Versions: 1 2 3 4 5 6 7 8 9 10 11 12 13 14 15 16 17 18 19 20 21 22 23 24 25 26 27 28 29 30 31 32 33 34 35 36 37 38 39 40 41 42 43 44 45 46 47 48 49 50

000
ASUS43 KMPX 201510
RWRMN
WEATHER ROUNDUP FOR MINNESOTA
NATIONAL WEATHER SERVICE TWIN CITIES/CHANHASSEN MN
1000 AM CDT FRI OCT 20 2017


NOTE: "FAIR" INDICATES FEW OR NO CLOUDS BELOW 12,000 FEET WITH NO
SIGNIFICANT WEATHER AND/OR OBSTRUCTIONS TO VISIBILITY. N/A MEANS
CURRENT SKY AND/OR WEATHER CONDITIONS ARE NOT AVAILABLE.

MNZ060>063-068>070-201600-
   Twin Cities Metro

CITY           SKY/WX    TMP DP  RH WIND       PRES   REMARKS
TWIN CITIES    MOSUNNY   62  53  72 SE6       29.90S
ST PAUL        SUNNY     62  53  72 S10       29.91S
CRYSTAL        SUNNY     64  49  57 S13G21    29.87S
BLAINE         MOSUNNY   64  52  63 S13G18    29.87F
LAKEVILLE      SUNNY     63  52  67 S10G16    29.90F
EDEN PRAIRIE   MOSUNNY   64  51  62 MISG      29.88S
SOUTH ST PAUL  SUNNY     63  50  64 S16       29.90F
LAKE ELMO      FAIR      61  52  72 S12       29.91F
$$
MNZ001>005-007-008-013>017-022>024-027-028-201600-
   Northwest Minnesota

CITY           SKY/WX    TMP DP  RH WIND       PRES   REMARKS
BEMIDJI        MOSUNNY   59  49  68 S12G17    29.68F
HALLOCK        SUNNY     59  50  72 S16       29.54F
ROSEAU         SUNNY     57  50  77 SE8       29.60F
WARROAD        SUNNY     57  50  77 SE7       29.63F
THIEF RVR FALL SUNNY     63  49  60 S18       29.61F
CROOKSTON      SUNNY     63  48  59 S21G28    29.57F
FOSSTON        SUNNY     64  46  52 S13       29.63F
DETROIT LAKES  SUNNY     61  48  63 S15       29.67F
MOORHEAD       SUNNY     63  48  59 S21G30    29.61F
PARK RAPIDS    SUNNY     58  50  75 S13       29.71F
MAHNOMEN       FAIR      64  48  56 S10G17    29.63F
$$
MNZ006-009>011-018-025>026-201600-
   North Central Minnesota

CITY           SKY/WX    TMP DP  RH WIND       PRES   REMARKS
BAUDETTE       SUNNY     58  48  69 S10       29.67F
FLAG ISLAND    SUNNY     52  46  82 S13       29.63F
INTL FALLS     SUNNY     59  46  62 SE7       29.71F
WASKISH        SUNNY     61  48  63 S10       29.67F
BIG FORK       SUNNY     61  48  63 S10       29.73F
LONGVILLE      MOSUNNY   63  48  59 S10       29.74F
GRAND RAPIDS   SUNNY     57  48  72 S12       29.79S
CRANE LAKE     SUNNY     55  46  71 S8        29.77F
ORR            SUNNY     57  45  62 S10       29.73F
COOK           SUNNY     59  48  67 S9        29.77F
WALKER         FAIR      58  48  69 SE5       29.72S
$$
MNZ012-019>021-037-201600-
   Northeast Minnesota

CITY           SKY/WX    TMP DP  RH WIND       PRES   REMARKS
DULUTH         SUNNY     60  50  69 S16       29.83F
ELY            SUNNY     59  46  63 S7        29.80F
HIBBING        SUNNY     55  47  74 SE6       29.79F
EVELETH        SUNNY     53  48  84 CALM      29.82F
DULUTH HARBOR  SUNNY     55  52  88 CALM      29.85S
TWO HARBORS    SUNNY     61  52  72 S3        29.83F
SILVER BAY     SUNNY     59  48  67 S3        29.83F
GRAND MARAIS     N/A     53  43  68 E3        29.86F
G MARAIS ARPRT SUNNY     57  43  58 S6        29.87F
$$
MNZ029>031-032-039>041-046>048-054>057-064-201600-
   West Central Minnesota

CITY           SKY/WX    TMP DP  RH WIND       PRES   REMARKS
FERGUS FALLS   SUNNY     61  48  63 S18       29.68F
WHEATON        SUNNY     61  48  63 S13       29.68F
MORRIS         SUNNY     61  50  67 S18       29.71F
ALEXANDRIA     SUNNY     61  49  64 S20G28    29.76F
ELBOW LAKE     FAIR      59  49  69 S21G26    29.71F
WADENA         SUNNY     59  48  67 S14G20    29.72F
GLENWOOD       SUNNY     61  48  63 S17G24    29.77F
APPLETON       SUNNY     63  48  59 S13G22    29.72F
BENSON         SUNNY     61  50  67 SW15      29.76F
ORTONVILLE     SUNNY     63  48  59 N12G18    29.70F
MADISON        SUNNY     66  50  55 S16G22    29.73F
WILLMAR        FAIR      63  52  67 S10G16    29.80F
$$
MNZ033>034-036-042>043-049>051-058-059-201600-
   Central Minnesota

CITY           SKY/WX    TMP DP  RH WIND       PRES   REMARKS
ST CLOUD       SUNNY     60  51  72 S13       29.83S
SAUK CENTRE    FAIR      59  50  71 S15       29.78F
PAYNESVILLE    SUNNY     60  50  70 S14G20    29.81F
AITKIN         SUNNY     57  48  72 S9G18     29.78S
PINE RIVER     CLOUDY    55  46  71 S9        29.79F
BRAINERD       SUNNY     60  49  66 S16G22    29.79S
STAPLES        SUNNY     59  46  63 S14       29.75S
LONG PRAIRIE   FAIR      59  48  67 SE13      29.78S
LITTLE FALLS   SUNNY     57  43  58 SE9       29.79F
LITCHFIELD     SUNNY     63  52  67 S5        29.83F
BUFFALO        SUNNY     62  49  62 S10G18    29.86F
MAPLE LAKE     SUNNY     62  52  68 S10G18    29.85F
HUTCHINSON     SUNNY     62  52  70 S12       29.85F
$$
MNZ037-044-045-052-053-201600-
   East Central Minnesota

CITY           SKY/WX    TMP DP  RH WIND       PRES   REMARKS
PRINCETON      SUNNY     64  52  63 S9G17     29.85S
MORA           SUNNY     57  48  72 S10G16    29.86S
CAMBRIDGE      SUNNY     64  50  59 S13G20    29.85F
RUSH CITY      SUNNY     61  50  67 S10       29.86F
MOOSE LAKE     SUNNY     61  50  67 S9G18     29.82F
HINCKLEY       FAIR      61  52  72 S10       29.86S
CLOQUET        SUNNY     61  46  59 S14       29.83F
MCGREGOR       SUNNY     59  50  72 S10G20    29.81F
$$
MNZ071>073-080-081-089-090-097-098-201600-
   Southwest Minnesota

CITY           SKY/WX    TMP DP  RH WIND       PRES   REMARKS
MONTEVIDEO     SUNNY     64  50  59 SW15G21   29.76F
GRANITE FALLS  SUNNY     65  53  65 S18       29.80F
CANBY          SUNNY     64  49  59 SW16G26   29.74F
MARSHALL       MOSUNNY   63  50  62 S24G31    29.77S
REDWOOD FALLS  SUNNY     64  50  60 S18G25    29.81F
OLIVIA         SUNNY     63  50  63 S10       29.81S
PIPESTONE      SUNNY     59  48  67 S16G25    29.80F
WORTHINGTON    SUNNY     63  51  65 S23G29    29.85F
JACKSON        SUNNY     61  50  67 S20       29.89F
TRACY          MOSUNNY   62  52  69 S15G23    29.81F
SLAYTON        MOSUNNY   63  51  65 S15G26    29.82F
$$
MNZ065>067-074>077-082>085-091>093-201600-
   South Central Minnesota

CITY           SKY/WX    TMP DP  RH WIND       PRES   REMARKS
MANKATO        SUNNY     62  51  67 S12G18    29.90F
NEW ULM          N/A     61  50  67 S17G24    29.85F
ST JAMES       SUNNY     63  52  67 S17G23    29.88F
FAIRMONT       SUNNY     62  52  69 S24       29.90F
GLENCOE        SUNNY     62  51  66 S9G17     29.85F
FARIBAULT      SUNNY     64  52  63 S9G16     29.92F
OWATONNA       SUNNY     61  52  72 S13       29.94S
WASECA         SUNNY     63  50  63 S12       29.94S
$$
MNZ078>079-086>088-094>096-201600-
   Southeast Minnesota

CITY           SKY/WX    TMP DP  RH WIND       PRES   REMARKS
ROCHESTER      SUNNY     62  52  69 S18       29.99F
RED WING       SUNNY     64  48  55 SE6       29.93F
STANTON        SUNNY     64  51  61 S12G20    29.91S
DODGE CENTER   SUNNY     61  50  67 S17       29.96S
WINONA         SUNNY     63  50  63 S3        29.99F
AUSTIN         SUNNY     57  52  82 S10       29.98S
PRESTON        SUNNY     60  51  71 S12       30.01S
$$
ABBREVIATIONS USED IN REMARKS
   TC - TEMPERATURES IN CELSIUS
  WCI - WIND CHILL INDEX
   HX - HEAT INDEX
  VSB - VISIBILITY
$$




USA.gov is the U.S. government's official web portal to all federal, state and local government web resources and services.